GW5470 Weather Reports


time (UTC)temp
C
wind
direction
speed
KPH
gust
KPH
rain 1hr
cm
rain 24hr
cm
rain mn
cm
humidity
%
barometer
mb
20260506080951 13 203 0.0 1.6 0.79 0.97 0.97 99 1006.9
20260506080447 13 196 1.6 1.6 0.79 0.91 0.91 99 1006.9
20260506073431 14 205 0.0 1.6 0.48 0.74 0.74 99 1007.0
20260506072928 14 205 1.6 1.6 0.30 0.69 0.69 99 1007.3
20260506072425 14 205 0.0 0.0 0.30 0.66 0.66 99 1007.2
20260506071923 14 205 1.6 1.6 0.48 0.64 0.64 99 1007.2
20260506071421 14 206 0.0 1.6 0.43 0.61 0.61 99 1007.3
20260506070918 14 206 0.0 0.0 0.48 0.58 0.58 99 1007.1
20260506070415 14 206 0.0 0.0 0.61 0.53 0.53 99 1007.2
20260506062352 14 221 0.0 0.0 0.18 0.20 0.20 99 1007.5
20260506061848 14 221 0.0 0.0 0.00 0.18 0.18 99 1007.5
20260506061344 14 221 1.6 1.6 0.00 0.18 0.18 99 1007.1
20260506060843 14 219 0.0 0.0 0.00 0.18 0.18 99 1006.9
20260506060340 14 219 0.0 0.0 0.00 0.18 0.18 99 1007.0
20260506051312 14 222 0.0 0.0 0.00 0.10 0.10 98 1007.7
20260506050810 14 222 0.0 0.0 0.18 0.10 0.10 98 1007.8
20260506050307 14 223 0.0 0.0 0.18 0.10 0.10 98 1008.0
20260506044758 15 206 3.2 3.2 0.00 0.08 0.08 98 1007.8
20260506044255 15 225 0.0 0.0 0.00 0.08 0.08 98 1008.2
20260506043752 15 225 0.0 0.0 0.00 0.08 0.08 98 1008.2
20260506043249 15 225 0.0 0.0 0.00 0.08 0.08 98 1008.4
20260506042748 15 225 0.0 0.0 0.18 0.08 0.08 98 1008.4
20260506042247 15 224 0.0 0.0 0.30 0.08 0.08 98 1008.6
20260506041745 15 225 0.0 0.0 0.30 0.05 0.05 98 1009.2
20260506041241 15 225 0.0 0.0 0.18 0.03 0.03 98 1009.1
20260506040739 15 225 0.0 0.0 0.13 0.00 0.00 97 1009.0
20260506040236 15 225 0.0 0.0 0.13 0.00 0.00 97 1009.2
20260506035732 15 225 0.0 0.0 0.00 0.08 0.08 97 1009.0
20260506035230 15 225 0.0 0.0 0.18 0.08 0.08 97 1009.0
20260506034726 15 225 0.0 0.0 0.18 0.08 0.08 97 1009.1
20260506034223 15 225 0.0 0.0 0.18 0.08 0.08 97 1008.7
20260506033721 15 225 0.0 0.0 0.00 0.05 0.05 97 1008.6
20260506033218 15 225 0.0 0.0 0.00 0.05 0.05 97 1008.5
20260506032715 15 225 0.0 0.0 0.00 0.05 0.05 97 1008.5
20260506032212 15 225 0.0 0.0 0.00 0.05 0.05 97 1008.5
20260506031708 15 225 0.0 0.0 0.00 0.05 0.05 97 1008.5
20260506031206 15 225 0.0 0.0 0.00 0.05 0.05 97 1008.6
20260506030704 15 225 0.0 0.0 0.00 0.05 0.05 97 1008.7
20260506030201 15 225 0.0 0.0 0.00 0.05 0.05 97 1008.4
20260506025657 15 225 0.0 0.0 0.00 0.05 0.05 97 1008.5
20260506025154 15 225 0.0 0.0 0.00 0.05 0.05 96 1008.3
20260506024651 15 225 0.0 0.0 0.00 0.05 0.05 96 1008.7
20260506024148 15 225 0.0 0.0 0.00 0.05 0.05 96 1008.6
20260506023644 15 225 0.0 0.0 0.00 0.05 0.05 95 1008.6
20260506023141 15 225 0.0 0.0 0.00 0.05 0.05 95 1008.5
20260506022638 15 213 1.6 1.6 0.13 0.05 0.05 95 1008.6
20260506022135 15 213 0.0 0.0 0.13 0.05 0.05 94 1008.7
20260506021633 15 213 0.0 0.0 0.00 0.03 0.03 93 1008.8
20260506021130 15 214 0.0 0.0 0.00 0.03 0.03 93 1008.5
20260506020627 15 213 0.0 0.0 0.00 0.03 0.03 92 1008.4
20260506020125 15 213 0.0 0.0 0.18 0.03 0.03 91 1008.5
20260506015623 16 213 0.0 0.0 0.18 0.03 0.03 89 1008.6
20260506015120 16 213 0.0 0.0 0.00 0.00 0.00 88 1008.5
20260506014617 16 213 0.0 0.0 0.00 0.00 0.00 85 1008.6
20260506014113 16 213 0.0 0.0 0.00 0.00 0.00 84 1008.6
20260506013611 17 213 0.0 0.0 0.00 0.00 0.00 81 1008.9
20260506013107 17 213 0.0 0.0 0.00 0.00 0.00 78 1008.6
20260506012603 17 213 0.0 0.0 0.00 0.00 0.00 76 1008.7
20260506012100 17 213 0.0 0.0 0.00 0.00 0.00 74 1008.6
20260506011558 18 213 0.0 0.0 0.00 0.00 0.00 71 1008.6
20260506011054 18 213 0.0 0.0 0.00 0.00 0.00 69 1008.5
20260506010553 18 213 0.0 0.0 0.00 0.00 0.00 67 1008.7
20260506010049 18 213 0.0 0.0 0.00 0.00 0.00 65 1008.5
20260506005547 19 203 0.0 0.0 0.00 0.00 0.00 64 1008.5
20260506005043 19 203 1.6 1.6 0.00 0.00 0.00 61 1008.6
20260506004540 20 205 0.0 0.0 0.00 0.00 0.00 63 1008.6
20260506004037 20 209 0.0 0.0 0.00 0.00 0.00 61 1008.6
20260506003533 20 210 0.0 1.6 0.00 0.00 0.00 58 1008.7
20260506003029 20 206 0.0 0.0 0.00 0.00 0.00 57 1008.7
20260506002525 20 215 1.6 1.6 0.00 0.00 0.00 56 1008.7
20260506002021 20 204 1.6 3.2 0.00 0.00 0.00 56 1008.6
20260506001518 21 197 1.6 3.2 0.00 0.00 0.00 56 1008.7
20260506001015 21 196 0.0 1.6 0.00 0.00 0.00 54 1008.7
20260506000513 21 209 1.6 1.6 0.00 0.00 0.00 55 1008.6
20260506000010 21 131 6.4 6.4 0.00 0.00 0.00 54 1008.6
20260505235508 21 207 3.2 3.2 0.00 0.00 0.00 53 1008.7
20260505235004 21 190 3.2 4.8 0.00 0.00 0.00 54 1008.8
20260505234501 21 201 3.2 4.8 0.00 0.00 0.00 55 1009.0
20260505233958 21 195 1.6 3.2 0.00 0.00 0.00 55 1008.8
20260505233456 21 208 0.0 1.6 0.00 0.00 0.00 55 1008.8
20260505232953 21 202 0.0 0.0 0.00 0.00 0.00 56 1008.8
20260505232451 21 208 1.6 1.6 0.00 0.00 0.00 56 1008.6
20260505231948 21 213 0.0 0.0 0.00 0.00 0.00 55 1008.6
20260505231445 21 203 1.6 1.6 0.00 0.00 0.00 56 1008.6
20260505230943 21 215 0.0 1.6 0.00 0.00 0.00 59 1008.9
20260505230441 21 206 0.0 0.0 0.00 0.00 0.00 60 1008.8
20260505225937 21 198 1.6 3.2 0.00 0.00 0.00 56 1008.9
20260505225434 21 202 0.0 0.0 0.00 0.00 0.00 60 1008.9
20260505224930 21 212 1.6 1.6 0.00 0.00 0.00 54 1009.0
20260505224427 21 210 1.6 3.2 0.00 0.00 0.00 55 1009.0
20260505223924 22 207 1.6 1.6 0.00 0.00 0.00 54 1008.9
20260505223421 22 208 1.6 1.6 0.00 0.00 0.00 54 1009.0
20260505222917 22 207 1.6 1.6 0.00 0.00 0.00 53 1009.1
20260505222413 22 207 1.6 3.2 0.00 0.00 0.00 53 1008.9
20260505221910 22 204 0.0 1.6 0.00 0.00 0.00 54 1008.9
20260505221407 22 198 0.0 1.6 0.00 0.00 0.00 54 1009.0
20260505220904 22 213 1.6 1.6 0.00 0.00 0.00 52 1008.9
20260505220401 22 197 3.2 3.2 0.00 0.00 0.00 52 1008.9
20260505215859 22 167 4.8 6.4 0.00 0.00 0.00 52 1008.8
20260505215356 22 184 4.8 4.8 0.00 0.00 0.00 53 1008.9
20260505214854 22 213 3.2 4.8 0.00 0.00 0.00 52 1008.7
20260505214351 22 215 4.8 6.4 0.00 0.00 0.00 52 1008.6
20260505213849 22 197 3.2 3.2 0.00 0.00 0.00 53 1008.8
20260505213346 22 207 1.6 3.2 0.00 0.00 0.00 51 1008.8
20260505212842 22 197 6.4 6.4 0.00 0.00 0.00 52 1008.7
20260505212339 22 204 1.6 1.6 0.00 0.00 0.00 53 1008.8
20260505211835 22 214 3.2 3.2 0.00 0.00 0.00 52 1008.9
20260505211333 22 178 4.8 4.8 0.00 0.00 0.00 51 1009.1
20260505210830 22 192 0.0 1.6 0.00 0.00 0.00 51 1009.1
20260505210326 22 214 0.0 0.0 0.00 0.00 0.00 53 1008.9
20260505205823 22 208 3.2 4.8 0.00 0.00 0.00 50 1009.2
20260505205322 22 208 4.8 6.4 0.00 0.00 0.00 49 1009.1
20260505204818 22 204 3.2 3.2 0.00 0.00 0.00 50 1009.1
20260505204316 22 163 6.4 9.7 0.00 0.00 0.00 51 1009.2
20260505203813 22 191 3.2 4.8 0.00 0.00 0.00 52 1009.1
20260505203310 22 197 1.6 3.2 0.00 0.00 0.00 50 1009.2
20260505202806 22 157 4.8 6.4 0.00 0.00 0.00 50 1009.3
20260505202305 22 196 3.2 3.2 0.00 0.00 0.00 52 1009.3
20260505201759 23 190 8.0 11.3 0.00 0.00 0.00 50 1009.5
20260505201256 23 207 6.4 9.7 0.00 0.00 0.00 48 1009.8
20260505200754 23 209 4.8 6.4 0.00 0.00 0.00 51 1009.6
20260505200251 23 182 3.2 4.8 0.00 0.00 0.00 50 1009.6
20260505195746 23 175 6.4 9.7 0.00 0.00 0.00 49 1009.6
20260505195244 23 166 4.8 4.8 0.00 0.00 0.00 50 1009.8
20260505194741 23 163 4.8 4.8 0.00 0.00 0.00 49 1009.8
20260505194239 23 219 6.4 6.4 0.00 0.00 0.00 49 1010.0
20260505193734 23 190 6.4 9.7 0.00 0.00 0.00 49 1009.9
20260505193232 23 160 8.0 9.7 0.00 0.00 0.00 50 1009.9
20260505192730 23 198 3.2 4.8 0.00 0.00 0.00 52 1009.8
20260505192228 23 158 3.2 4.8 0.00 0.00 0.00 50 1010.0
20260505191726 23 153 4.8 11.3 0.00 0.00 0.00 50 1010.0
20260505191224 23 212 6.4 9.7 0.00 0.00 0.00 51 1010.3
20260505190720 23 188 4.8 6.4 0.00 0.00 0.00 49 1010.2
20260505190219 23 167 9.7 14.5 0.00 0.00 0.00 50 1010.2
20260505185716 23 263 1.6 1.6 0.00 0.00 0.00 50 1010.2
20260505185212 23 224 9.7 12.9 0.00 0.00 0.00 51 1010.4
20260505184708 23 174 4.8 6.4 0.00 0.00 0.00 50 1010.4
20260505184206 23 181 9.7 12.9 0.00 0.00 0.00 50 1010.4
20260505183702 23 209 9.7 14.5 0.00 0.00 0.00 49 1010.4
20260505183200 23 145 4.8 6.4 0.00 0.00 0.00 51 1010.6
20260505182655 23 213 3.2 4.8 0.00 0.00 0.00 50 1010.4
20260505182153 23 206 3.2 3.2 0.00 0.00 0.00 50 1010.8
20260505181649 22 223 4.8 9.7 0.00 0.00 0.00 50 1010.8
20260505181147 22 117 6.4 6.4 0.00 0.00 0.00 52 1010.9
20260505180643 22 248 6.4 9.7 0.00 0.00 0.00 51 1010.7
20260505180141 22 141 8.0 9.7 0.00 0.00 0.00 52 1010.6
20260505175636 22 179 4.8 9.7 0.00 0.00 0.00 51 1010.6
20260505175133 22 201 3.2 4.8 0.00 0.00 0.00 52 1010.8
20260505174630 23 202 6.4 9.7 0.00 0.00 0.00 50 1010.8
20260505174126 22 250 9.7 12.9 0.00 0.00 0.00 50 1010.8
20260505173623 22 137 3.2 3.2 0.00 0.00 0.00 51 1010.8
20260505173119 22 262 6.4 11.3 0.00 0.00 0.00 52 1010.7
20260505172617 22 210 3.2 6.4 0.00 0.00 0.00 50 1010.7
20260505172114 22 195 3.2 4.8 0.00 0.00 0.00 51 1010.6
20260505171608 23 173 20.9 25.7 0.00 0.00 0.00 48 1010.7
20260505171106 23 224 6.4 9.7 0.00 0.00 0.00 49 1010.6
20260505170603 23 126 9.7 12.9 0.00 0.00 0.00 49 1010.4
20260505170059 22 197 3.2 3.2 0.00 0.00 0.00 53 1010.4
20260505165554 22 199 4.8 4.8 0.00 0.00 0.00 51 1010.4
20260505165051 22 250 9.7 11.3 0.00 0.00 0.00 50 1010.6
20260505164547 22 200 6.4 9.7 0.00 0.00 0.00 51 1010.5
20260505164044 22 220 3.2 4.8 0.00 0.00 0.00 51 1010.3
20260505163543 22 219 9.7 17.7 0.00 0.00 0.00 51 1010.5
20260505163039 22 172 6.4 6.4 0.00 0.00 0.00 52 1010.6
20260505162532 22 179 12.9 17.7 0.00 0.00 0.00 52 1010.5
20260505162029 22 203 3.2 3.2 0.00 0.00 0.00 54 1010.7
20260505161525 22 224 3.2 3.2 0.00 0.00 0.00 54 1010.6
20260505161023 22 206 3.2 3.2 0.00 0.00 0.00 52 1010.6
20260505160521 22 191 6.4 9.7 0.00 0.00 0.00 52 1010.6
20260505152957 21 207 4.8 9.7 0.00 0.00 0.00 57 1010.3
20260505152454 21 179 4.8 6.4 0.00 0.00 0.00 54 1010.2
20260505151949 21 207 4.8 6.4 0.00 0.00 0.00 55 1010.2
20260505151445 21 224 1.6 1.6 0.00 0.00 0.00 56 1010.3
20260505150943 21 202 3.2 3.2 0.00 0.00 0.00 56 1010.3
20260505150439 21 170 6.4 6.4 0.00 0.00 0.00 54 1010.3
20260505140409 21 167 1.6 3.2 0.00 0.00 0.00 55 1010.5
20260505124823 20 158 6.4 9.7 0.00 0.00 0.00 60 1010.6
20260505124320 19 202 3.2 4.8 0.00 0.00 0.00 61 1010.5
20260505123816 19 208 3.2 4.8 0.00 0.00 0.00 62 1010.4
20260505123313 18 207 3.2 4.8 0.00 0.00 0.00 63 1010.6
20260505122808 18 191 3.2 3.2 0.00 0.00 0.00 63 1010.7
20260505122306 18 203 1.6 3.2 0.00 0.00 0.00 64 1010.7
20260505121802 18 221 3.2 3.2 0.00 0.00 0.00 63 1010.6
20260505121259 17 189 1.6 3.2 0.00 0.00 0.00 67 1010.6
20260505120755 17 178 6.4 6.4 0.00 0.00 0.00 65 1010.4
20260505120252 17 202 3.2 3.2 0.00 0.00 0.00 66 1010.4
20260505115750 17 201 3.2 3.2 0.00 0.00 0.00 66 1010.5
20260505115248 17 215 1.6 3.2 0.00 0.00 0.00 67 1010.4
20260505114746 17 214 0.0 0.0 0.00 0.00 0.00 67 1010.0
20260505114241 17 184 4.8 4.8 0.00 0.00 0.00 66 1010.2
20260505113738 17 207 0.0 1.6 0.00 0.00 0.00 67 1010.2
20260505113235 17 212 1.6 3.2 0.00 0.00 0.00 67 1010.2
20260505112731 17 204 1.6 3.2 0.00 0.00 0.00 66 1009.9
20260505112229 17 212 1.6 1.6 0.00 0.00 0.00 68 1009.8
20260505111729 17 227 8.0 11.3 0.00 0.00 0.00 67 1009.6
20260505111225 17 211 1.6 1.6 0.00 0.00 0.00 68 1009.6
20260505110721 16 202 1.6 1.6 0.00 0.00 0.00 69 1009.9
20260505110218 16 205 1.6 1.6 0.00 0.00 0.00 72 1009.8
20260505102154 15 212 0.0 0.0 0.00 0.00 0.00 75 1009.9
20260505101653 15 211 0.0 0.0 0.00 0.00 0.00 76 1009.9
20260505101148 15 221 0.0 0.0 0.00 0.00 0.00 80 1009.6
20260505100644 15 220 0.0 1.6 0.00 0.00 0.00 80 1009.4
20260505100142 13 230 3.2 3.2 0.00 0.00 0.00 84 1009.5
20260505095637 13 213 0.0 0.0 0.00 0.00 0.00 85 1009.4
20260505095135 13 213 0.0 0.0 0.00 0.00 0.00 86 1009.4
20260505094631 13 212 0.0 0.0 0.00 0.00 0.00 85 1009.3
20260505094127 13 215 1.6 1.6 0.00 0.00 0.00 86 1009.5
20260505093624 13 215 0.0 0.0 0.00 0.00 0.00 85 1009.5
20260505093121 13 215 0.0 0.0 0.00 0.00 0.00 86 1009.4
20260505092618 13 215 0.0 0.0 0.00 0.00 0.00 85 1009.5
20260505092117 13 215 0.0 0.0 0.00 0.00 0.00 84 1009.3
20260505091613 14 215 0.0 0.0 0.00 0.00 0.00 83 1009.3
20260505091112 14 216 0.0 0.0 0.00 0.00 0.00 83 1009.3
20260505090609 14 216 0.0 0.0 0.00 0.00 0.00 82 1009.3
20260505090107 15 216 0.0 0.0 0.00 0.00 0.00 80 1009.2
20260505085604 15 215 0.0 0.0 0.00 0.00 0.00 80 1009.2
20260505085102 15 215 0.0 0.0 0.00 0.00 0.00 77 1009.3
20260505084600 15 222 0.0 0.0 0.00 0.00 0.00 78 1009.0
20260505084058 15 229 0.0 1.6 0.00 0.00 0.00 77 1009.0
20260505083555 15 228 0.0 0.0 0.00 0.00 0.00 77 1009.0
20260505083051 16 225 0.0 0.0 0.00 0.00 0.00 76 1009.0
20260505082547 15 208 0.0 0.0 0.00 0.00 0.00 76 1009.0
20260505082044 16 213 0.0 1.6 0.00 0.00 0.00 74 1008.6
20260505081541 15 219 0.0 0.0 0.00 0.00 0.00 77 1008.7